Location: Juzet
(42.9779°N, 0.7597°E)
Time: 00:52:49
(UTC+00:00)

Daily predictions for brighter satellites

Satellite Brightness Start Highest point End
(mag) Time Altitude Azimuth Time Altitude Azimuth Time Altitude Azimuth
RESURS DK-1 4.3 00:00:31 10° NW 00:02:33 20° WNW 00:02:33 20° WNW
Meteor 2-6 Rocket 4.4 00:00:51 10° NNW 00:06:05 52° W 00:06:29 51° WSW
CZ-4 R/B 4.1 00:05:00 10° NNE 00:09:36 56° E 00:09:36 56° E
Cosmos 1441 Rocket 3.9 00:10:43 55° NNE 00:10:43 55° NNE 00:13:54 10° NNE
Lacrosse 5 1.8 00:10:39 72° WSW 00:11:08 80° NW 00:16:15 10° NE
Landsat 4 4.4 00:07:46 10° NNE 00:10:43 52° NNE 00:10:43 52° NNE
SL-16 R/B 4.4 00:12:08 10° ESE 00:16:51 23° ENE 00:21:35 10° N
BREEZE-M DEB (TANK) 3.9 00:06:49 10° WSW 00:18:54 89° NNW 00:22:49 10° ENE
Meteor 1-4 Rocket 4.0 00:18:33 10° N 00:21:27 34° NE 00:21:27 34° NE
Cosmos 1607 4.5 00:20:03 32° WSW 00:22:45 53° NW 00:28:56 10° NNE
Cosmos 1666 Rocket 3.7 00:23:50 69° NW 00:23:50 69° NW 00:27:53 10° N
Iridium 4 Rocket 3.9 00:24:13 51° SE 00:25:10 58° E 00:30:28 10° N
CZ-4C R/B 3.6 00:18:32 10° NW 00:25:23 38° WSW 00:26:33 37° SW
Meteor 2-20 Rocket 4.4 00:23:03 10° N 00:29:14 84° W 00:30:28 60° S
USA 267 3.2 00:32:12 52° S 00:33:29 62° SW 00:39:58 10° NW
Helios 1B rocket 2.6 00:29:23 10° NNE 00:33:01 66° NE 00:33:01 66° NE
Helios 1A 4.3 00:38:50 29° WNW 00:38:50 29° WNW 00:41:42 10° NNW
Cosmos 972 Rocket 4.1 00:38:28 10° NNW 00:44:18 67° WSW 00:44:50 63° SW
SeaSat 1 4.3 00:41:18 10° ENE 00:44:38 18° ESE 00:45:02 18° ESE
Cosmos 1833 Rocket 4.3 00:44:54 20° ESE 00:45:58 21° E 00:50:04 10° NE
CZ-2D R/B 3.5 00:43:13 10° NE 00:47:47 28° E 00:49:08 25° ESE
Meteor 1-25 Rocket 4.1 00:47:42 61° SSE 00:48:40 77° E 00:54:14 10° NNE
Cosmos 1184 Rocket 4.4 00:49:58 32° NE 00:49:58 32° NE 00:52:00 10° NNE
Cosmos 1238 Rocket 3.4 00:50:05 68° SW 00:50:38 76° W 00:55:20 10° N
COSMOS 2406 4.1 00:49:39 33° SE 00:50:39 35° ESE 00:55:51 10° NE
Cosmos 405 Rocket 3.9 00:52:44 35° E 00:52:44 35° E 00:55:49 10° NNE
Cosmos 1459 Rocket 4.5 00:52:49 38° SE 00:54:41 50° E 01:00:36 10° NNE
Cosmos 407 Rocket 4.4 00:55:13 34° ESE 00:56:06 37° ESE 01:01:00 10° NE
Meteor 1-27 Rocket 4.4 00:52:24 10° NNW 00:57:38 39° W 00:58:15 38° WSW
Meteor 1-20 Rocket 4.1 00:58:23 61° SSW 00:59:24 85° W 01:05:06 10° N
Cosmos 724 4.4 00:59:22 46° WSW 01:00:58 65° NW 01:06:47 10° NNE
Meteor 1-29 3.9 00:57:53 10° N 01:00:26 47° N 01:00:26 47° N
SL-24 DEB 4.2 00:58:06 10° N 01:02:51 77° E 01:03:20 69° SSE
Meteor 1-18 Rocket 4.2 01:05:16 10° N 01:11:06 81° ENE 01:12:51 47° SSE
CZ-4C R/B 4.4 01:11:31 33° E 01:12:13 36° ENE 01:15:38 10° N
Cosmos 1932 4.5 01:12:30 49° SSW 01:14:26 80° ESE 01:21:02 10° NE
Cosmos 1515 4.0 01:12:01 10° N 01:15:48 59° E 01:15:48 59° E
Cosmos 1992 Rocket 4.3 01:11:27 10° NNW 01:16:29 47° WSW 01:16:38 47° WSW
Cosmos 1470 Rocket 4.2 01:16:51 42° W 01:17:03 42° WNW 01:21:20 10° N
Okean 1-7 3.1 01:14:48 10° N 01:19:13 73° E 01:19:46 63° SE
Meteor 1-19 Rocket 4.1 01:19:51 10° N 01:25:30 88° W 01:27:07 48° S
ADEOS II 3.8 01:21:46 10° NE 01:25:59 24° E 01:28:37 17° SE
NPP 4.1 01:21:48 10° NNE 01:27:05 52° E 01:28:51 37° SSE
NOSS 2-1 (E) 4.4 01:22:43 10° NW 01:28:18 80° SW 01:34:17 18° SSE
ISS -0.9 01:27:52 10° NW 01:30:26 20° N 01:33:00 10° ENE
Resurs 1-4 Rocket 2.2 01:25:28 10° NNE 01:30:46 67° ESE 01:32:21 44° SSE
UNK 3.8 01:33:05 45° SSE 01:34:26 74° ENE 01:39:04 10° N
AQUA 4.5 01:30:22 10° NNE 01:34:58 47° E 01:36:23 36° SE
Abrixas rocket 4.0 01:35:13 22° NNW 01:36:16 28° N 01:38:50 10° ENE
ATLAS 5 CENTAUR R/B 4.2 01:37:01 10° NNW 01:41:55 30° NE 01:47:28 10° ESE
Cosmos 2061 Rocket 4.0 01:41:58 37° S 01:44:41 85° E 01:51:02 10° N
Cosmos 2173 Rocket 4.1 01:43:03 40° SSW 01:45:23 66° W 01:51:41 10° N
Cosmos 2369 4.4 01:42:17 10° NNW 01:47:54 52° ENE 01:53:28 10° SE
Cosmos 1980 Rocket 3.9 01:43:24 10° N 01:48:32 33° NE 01:53:36 10° ESE
SL-8 R/B 3.9 01:46:35 33° W 01:48:40 68° NNW 01:53:29 10° ENE
Cosmos 2242 Rocket 4.5 01:44:38 10° NNW 01:48:45 34° W 01:48:52 34° W
Lacrosse 5 3.9 01:50:39 10° WNW 01:54:47 24° NNW 01:58:55 10° NNE
IRAS Rocket 4.4 01:54:13 40° SW 01:55:37 50° WSW 02:00:59 10° NNW
Cosmos 2016 Rocket 3.9 01:53:41 37° SSW 01:56:19 80° W 02:02:33 10° N
Okean 3 3.5 01:53:11 10° N 01:57:23 74° E 01:58:48 40° SSE
Meteor 1-5 Rocket 4.2 01:55:49 37° S 01:58:11 88° E 02:04:04 10° N
SL-16 R/B 2.5 01:57:01 33° S 01:59:54 65° WSW 02:06:09 10° NNW
BREEZE-M DEB (TANK) 3.1 01:58:56 12° WNW 02:01:23 86° NNE 02:09:50 10° ESE
Cosmos 1536 3.4 02:02:53 35° SSE 02:04:17 53° E 02:08:15 10° NNE
MOZ.5/SAFIR/RUBIN 5/SL-8 4.4 02:04:31 37° WSW 02:05:10 38° W 02:09:38 10° NNW
Cosmos 1864 Rocket 4.4 02:02:20 34° SSW 02:05:13 81° W 02:11:23 10° N
Cosmos 1869 Rocket 3.9 02:04:44 41° WSW 02:05:32 46° WNW 02:09:44 10° N
Meteor 2-4 Rocket 3.8 01:59:55 10° NNW 02:05:48 67° W 02:08:32 32° SSW
Meteor 1-11 Rocket 3.8 02:04:11 30° S 02:06:57 72° E 02:12:27 10° NNE
Cosmos 1190 Rocket 4.1 02:06:38 37° SW 02:08:33 63° WNW 02:13:46 10° NNE
Cosmos 1954 Rocket 4.0 02:08:19 35° S 02:10:34 80° ESE 02:15:54 10° NNE
Cosmos 1437 Rocket 3.1 02:09:07 10° NNW 02:12:58 45° W 02:13:22 43° WSW
Cosmos 921 Rocket 3.6 02:09:04 10° N 02:13:26 56° ENE 02:17:11 13° SSE
Cosmos 1697 Rocket 2.6 02:11:15 10° NNW 02:16:55 87° WSW 02:22:17 11° SSE
Cosmos 2221 Rocket 3.5 02:13:09 10° N 02:17:34 78° W 02:19:26 34° S
NOSS 7 (D) 3.9 02:17:23 10° NW 02:20:16 83° NE 02:21:20 37° SE
SeaSat 1 2.6 02:17:37 10° NNE 02:22:30 63° WNW 02:24:48 31° SW
Cosmos 2082 Rocket 2.2 02:22:31 29° SSW 02:25:34 83° ESE 02:31:19 10° NNE
CZ-4B R/B 3.5 02:21:51 10° N 02:26:52 64° WNW 02:29:11 31° SW
IRS-1D 3.4 02:21:59 10° NNE 02:26:57 81° WNW 02:29:30 29° SSW
COBE Rocket 3.9 02:23:54 17° SSE 02:27:50 84° ENE 02:32:46 10° N
CZ-2D R/B 2.9 02:22:56 10° N 02:27:54 40° WNW 02:30:27 25° WSW
Aureole 1 Rocket 3.7 02:26:02 32° SW 02:28:03 56° WNW 02:33:53 10° NNE
Cosmos 1833 Rocket 3.0 02:26:35 28° SW 02:29:25 57° WNW 02:34:58 10° NNE
Cosmos 1900 4.3 02:29:33 31° SSW 02:31:54 87° WNW 02:36:54 10° NNE
Meteor 1-23 Rocket 4.4 02:28:39 10° N 02:34:25 76° E 02:40:13 10° SSE
Cosmos 1140 Rocket 4.2 02:32:12 25° WSW 02:34:41 40° WNW 02:39:38 10° N
COSMOS 2406 4.2 02:31:43 21° WSW 02:34:55 37° WNW 02:40:14 10° N
Meteor 1-28 Rocket 4.1 02:31:26 10° SSE 02:35:00 46° ENE 02:38:36 10° N
Cosmos 1656 4.4 02:31:21 10° NW 02:36:07 32° WSW 02:37:53 26° SW
CBERS-1 4.1 02:35:01 10° N 02:40:06 63° WNW 02:43:03 25° SW
Cosmos 2233 Rocket 4.1 02:39:39 23° SSW 02:43:39 65° W 02:49:53 10° N
Cosmos 2360 4.2 02:37:56 10° NNW 02:43:40 72° WSW 02:49:21 10° SSE
CZ-2D R/B 4.5 02:41:16 10° NNE 02:45:27 44° E 02:49:05 13° S
Cosmos 1674 Rocket 3.4 02:44:26 10° N 02:48:47 81° W 02:52:18 15° S
Cosmos 1666 3.5 02:48:04 27° WSW 02:49:20 34° WNW 02:52:48 10° N
Cosmos 192 4.3 02:45:15 10° NNW 02:50:06 62° WSW 02:54:50 10° S
Cosmos 1850 Rocket 4.2 02:46:38 19° S 02:50:32 72° ESE 02:55:52 10° NNE
ATLAS 5 CENTAUR R/B 3.6 02:47:28 10° NW 02:51:47 52° SW 03:07:10 10° SSE
Cosmos 2322 Rocket 4.5 02:47:21 10° N 02:52:07 27° NE 02:56:53 10° ESE
Cosmos 1066 Rocket 4.3 02:50:17 10° NNW 02:56:09 71° W 03:01:56 10° S
ARIANE 5 R/B 2.5 02:54:07 10° NNE 02:59:15 89° W 03:03:30 15° SSW
IRS-1C 4.2 02:54:51 10° N 03:00:10 68° WNW 03:04:12 18° SSW
Cosmos 1544 3.9 03:00:02 10° SSE 03:03:24 47° E 03:06:52 10° NNE
USA 238 DEB 4.4 02:58:23 12° S 03:04:14 47° ESE 03:10:43 10° NE
USA 238 4.4 02:58:28 12° S 03:04:19 46° ESE 03:10:47 10° NE
Cosmos 1743 2.6 03:02:34 19° SSW 03:05:15 79° W 03:09:06 10° N
ADEOS II 2.6 03:00:52 10° N 03:05:51 45° WNW 03:09:33 17° SW
SL-08 R/B 3.4 03:01:17 10° S 03:05:56 61° WSW 03:10:45 10° NNW
Cosmos 1818 3.8 03:01:19 10° NNW 03:06:48 73° NE 03:12:13 10° SE
ISS -2.8 03:04:28 10° NW 03:07:46 51° NNE 03:11:03 10° ESE
Cosmos 1741 Rocket 4.0 03:04:18 17° SSW 03:08:24 84° WNW 03:13:39 10° NNE
Cosmos 1733 Rocket 4.0 03:06:40 19° WSW 03:08:56 31° WNW 03:12:49 10° NNW
Cosmos 1908 Rocket 3.6 03:05:55 15° S 03:09:41 82° W 03:14:11 10° N
Resurs 1-4 Rocket 3.9 03:06:33 10° NNW 03:10:02 18° WNW 03:13:26 10° W
Spot 4 Rocket 4.1 03:06:13 10° NNE 03:11:24 84° ESE 03:16:29 10° SSW
Abrixas rocket 1.8 03:09:03 10° WNW 03:11:57 84° NNE 03:14:50 10° ESE
Landsat 5 4.2 03:08:52 10° SSE 03:12:39 50° ENE 03:16:24 10° N
CENTAUR R/B 3.9 03:09:46 10° S 03:14:41 30° ESE 03:20:17 10° NE
Cosmos 1242 Rocket 2.6 03:19:19 10° NNW 03:22:42 52° W 03:26:05 10° S
ATLAS 5 CENTAUR R/B 2.4 03:21:11 10° NW 03:26:59 64° WSW 03:33:38 10° SSE
ATLAS 2A CENTAUR R/B 4.4 03:27:08 11° SSW 03:28:11 11° SSW 03:29:38 10° S
CSL-04 DEB 4.5 03:26:13 10° S 03:30:19 59° WSW 03:34:21 10° NNW
Gbstr 26 Del rocket 3.3 03:26:03 10° WNW 03:30:24 59° SW 03:35:46 10° SE
Cosmos 1980 Rocket 2.7 03:27:19 10° NW 03:32:35 40° WSW 03:37:48 10° S
Cosmos 1378 3.8 03:29:07 10° NNW 03:32:36 36° W 03:36:03 10° SSW
Lacrosse 5 4.4 03:36:09 10° NW 03:39:20 16° N 03:42:33 10° NE
Cosmos 1975 Rocket 3.1 03:35:41 10° N 03:40:08 89° W 03:44:36 10° S
BREEZE-M TANK 3.0 03:37:45 10° W 03:40:45 65° N 03:47:07 10° E
IDEFIX/ARIANE 42P 2.7 03:36:20 10° N 03:41:28 62° WNW 03:46:33 10° SSW
H-2A R/B 2.2 03:41:01 10° S 03:45:20 57° WSW 03:49:35 10° NNW
PSLV R/B 4.1 03:42:11 10° NNE 03:46:28 61° E 03:50:45 10° S
CZ-4B R/B 3.2 03:43:59 10° SE 03:47:13 37° ENE 03:50:28 10° N
Cosmos 1975 3.1 03:46:26 10° SSW 03:50:18 48° WNW 03:54:11 10° N
MSX 3.9 03:45:01 10° N 03:50:46 77° WNW 03:56:29 10° SSW
Cosmos 1464 Rocket 4.3 03:45:12 10° SSW 03:51:23 52° WNW 03:57:35 10° N
CZ-2C R/B 3.2 03:48:53 10° N 03:52:50 49° WNW 03:56:42 10° SSW
Cosmos 2208 Rocket 4.1 03:48:02 10° NNW 03:53:27 81° WSW 03:58:44 10° SSE
Cosmos 1867 3.6 03:48:35 10° SSW 03:54:01 89° WNW 03:59:31 10° NNE
Okean 2 Rocket 3.6 03:50:03 10° S 03:54:23 64° E 03:58:44 10° NNE
Intercosmos 25 Rocket 4.0 03:50:42 10° NNW 03:54:46 71° W 04:01:13 10° S
SL-16 R/B 2.3 03:49:37 10° NNW 03:55:20 87° WSW 04:01:00 10° SSE
OE (NEXTSAT) 4.3 03:54:02 10° WSW 03:57:29 81° SSE 04:00:58 10° ENE
SL-27 R/B 2.9 03:54:54 10° SW 03:58:18 46° WNW 04:01:39 10° N
CZ-4C R/B 3.6 03:56:59 10° SSW 03:59:54 31° W 04:02:47 10° NNW
Cosmos 1697 Rocket 4.5 03:58:09 10° WNW 03:59:56 12° W 04:01:44 10° WSW
Cosmos 1842 3.6 03:56:24 10° NNW 04:00:12 46° W 04:03:59 10° SSW
CZ-2C R/B 2.7 03:56:22 10° NNE 04:01:09 69° ESE 04:05:44 10° S
Cosmos 2034 Rocket 4.1 03:56:04 10° SSW 04:02:07 59° WNW 04:08:13 10° N
Cosmos 1814 Rocket 3.9 03:57:12 10° NNW 04:02:19 73° WSW 04:07:27 10° S
ATLAS 3B R/B 4.3 03:57:45 10° S 04:03:17 29° ESE 04:08:50 10° NE
